Weather History for EHRD - September, 2012

Change the Weather History Date:

Friday, September 14, 2012

  Actual Average Record
Temperature  
Mean Temperature 59 °F -  
Max Temperature 64 °F 60 °F 78 °F (2006)
Min Temperature 54 °F 48 °F 42 °F (2003)
Degree Days  
Heating Degree Days 6    
Growing Degree Days 9 (Base 50)    
Moisture  
Dew Point 53 °F    
Average Humidity 79    
Maximum Humidity 100    
Minimum Humidity 59    
Precipitation  
Precipitation 0.04 in - - ()
Sea Level Pressure  
Sea Level Pressure 29.87 in    
Wind  
Wind Speed 13 mph ()    
Max Wind Speed 20 mph    
Max Gust Speed 31 mph    
Visibility 7.0 miles    
Events Rain    
Averages and records for this station are not official NWS values.
T = Trace of Precipitation, MM = Missing Value Source: Averaged Metar Reports

Daily Weather History Graph

Daily Weather History Graph

Search for Another Location

Airport or City:

Trip Planner

Search our weather history database for the weather conditions in past years. The results will help you decide how hot, cold, wet, or windy it might be!

Date:

Astronomy

Sep. 14, 2012 Rise Set
Actual Time 7:15 AM CEST 7:58 PM CEST
Civil Twilight 6:41 AM CEST 8:32 PM CEST
Nautical Twilight 6:00 AM CEST 9:13 PM CEST
Astronomical Twilight 5:17 AM CEST 9:56 PM CEST
Moon 5:14 AM CEST (9/14) 6:49 PM CEST (9/14)
Length of Visible Light 13h 50m
Length of Day
12h 42m
Waning Crescent, 4% of the Moon is Illuminated
Sep 14
Waning Crescent
Sep 16
New
Sep 22
First Quarter
Sep 30
Full
Oct 8
Last Quarter

Hourly Weather History & Observations

Time (CEST) Temp. Dew Point Humidity Pressure Visibility Wind Dir Wind Speed Gust Speed Precip Events Conditions
12:25 AM 55.4 °F 48.2 °F 77% 30.01 in 6.2 mi SSW 9.2 mph - N/A   Unknown
12:55 AM 55.4 °F 48.2 °F 77% 30.01 in 6.2 mi SSW 11.5 mph - N/A   Partly Cloudy
1:25 AM 57.2 °F 48.2 °F 72% 29.98 in 6.2 mi SSW 12.7 mph - N/A   Unknown
1:55 AM 55.4 °F 48.2 °F 77% 29.98 in 6.2 mi SSW 12.7 mph - N/A   Unknown
2:00 AM 56 °F 49 °F 69% 29.99 in 25 mi SSW 15.7 mph - -   Partly Cloudy
2:25 AM 55.4 °F 48.2 °F 77% 29.98 in 6.2 mi SSW 12.7 mph - N/A   Unknown
2:55 AM 55.4 °F 50.0 °F 82% 29.95 in 6.2 mi SSW 15.0 mph - N/A   Unknown
3:25 AM 55.4 °F 50.0 °F 82% 29.95 in 6.2 mi SSW 13.8 mph - N/A   Unknown
3:55 AM 55.4 °F 50.0 °F 82% 29.92 in 6.2 mi SSW 13.8 mph - N/A   Unknown
4:25 AM 55.4 °F 50.0 °F 82% 29.92 in 6.2 mi SSW 17.3 mph - N/A   Partly Cloudy
4:55 AM 55.4 °F 51.8 °F 88% 29.89 in 6.2 mi SW 17.3 mph - N/A   Mostly Cloudy
5:00 AM 56 °F 51 °F 80% 29.91 in 17 mi SW 15.7 mph - -   Overcast
5:25 AM 57.2 °F 51.8 °F 82% 29.89 in 6.2 mi SSW 16.1 mph - N/A   Overcast
5:55 AM 57.2 °F 51.8 °F 82% 29.86 in 6.2 mi SSW 15.0 mph - N/A   Overcast
6:25 AM 57.2 °F 51.8 °F 82% 29.86 in 6.2 mi SSW 16.1 mph - N/A   Overcast
6:55 AM 57.2 °F 53.6 °F 88% 29.86 in 6.2 mi SW 18.4 mph - N/A   Overcast
7:25 AM 57.2 °F 53.6 °F 88% 29.83 in 6.2 mi SW 16.1 mph - N/A   Mostly Cloudy
7:55 AM 57.2 °F 53.6 °F 88% 29.83 in 6.2 mi SW 12.7 mph - N/A   Overcast
8:00 AM 59 °F 53 °F 75% 29.86 in 12 mi WSW 15.7 mph - -   Partly Cloudy
8:25 AM 59.0 °F 53.6 °F 82% 29.86 in 6.2 mi WSW 17.3 mph - N/A   Overcast
8:55 AM 59.0 °F 53.6 °F 82% 29.83 in 6.2 mi WSW 18.4 mph - N/A   Overcast
9:25 AM 59.0 °F 51.8 °F 77% 29.83 in 6.2 mi WSW 18.4 mph - N/A   Overcast
9:55 AM 59.0 °F 53.6 °F 82% 29.83 in 6.2 mi WSW 19.6 mph - N/A   Overcast
10:25 AM 59.0 °F 55.4 °F 88% 29.83 in 3.1 mi WSW 16.1 mph - N/A   Overcast
10:55 AM 59.0 °F 57.2 °F 94% 29.83 in 6.2 mi SW 15.0 mph - N/A   Overcast
11:00 AM 60 °F 57 °F 87% 29.84 in 9 mi SW 15.7 mph - - Rain Light Rain Showers
11:25 AM 59.0 °F 57.2 °F 94% 29.83 in 3.7 mi WSW 18.4 mph - N/A   Light Drizzle
11:55 AM 59.0 °F 59.0 °F 100% 29.83 in 1.8 mi SW 16.1 mph - N/A Rain Light Rain
12:25 PM 59.0 °F 59.0 °F 100% 29.80 in 6.2 mi WSW 17.3 mph - N/A   Mostly Cloudy
12:55 PM 60.8 °F 59.0 °F 94% 29.80 in 4.3 mi SW 19.6 mph - N/A   Mostly Cloudy
1:25 PM 62.6 °F 57.2 °F 82% 29.80 in 6.2 mi WSW 17.3 mph - N/A   Overcast
1:55 PM 62.6 °F 57.2 °F 82% 29.80 in 6.2 mi WSW 17.3 mph - N/A   Mostly Cloudy
2:00 PM 62 °F 58 °F 83% 29.82 in 13 mi WSW 17.9 mph - - Rain Rain
2:25 PM 62.6 °F 57.2 °F 82% 29.80 in 6.2 mi WSW 18.4 mph 31.1 mph N/A   Overcast
2:55 PM 62.6 °F 57.2 °F 82% 29.80 in 6.2 mi WSW 18.4 mph - N/A   Mostly Cloudy
3:25 PM 62.6 °F 57.2 °F 82% 29.80 in 6.2 mi WSW 19.6 mph - N/A   Mostly Cloudy
3:55 PM 60.8 °F 51.8 °F 72% 29.80 in 6.2 mi WNW 15.0 mph - N/A   Overcast
4:25 PM 59.0 °F 55.4 °F 88% 29.80 in 6.2 mi West 10.4 mph - N/A Rain Light Rain Showers
4:55 PM 60.8 °F 55.4 °F 82% 29.80 in 6.2 mi West 8.1 mph - N/A   Overcast
5:00 PM 62 °F 56 °F 74% 29.82 in 16 mi West 8.9 mph - - Rain Rain
5:25 PM 62.6 °F 53.6 °F 72% 29.80 in 6.2 mi WNW 12.7 mph 24.2 mph N/A   Unknown
5:55 PM 62.6 °F 51.8 °F 68% 29.80 in 6.2 mi WNW 11.5 mph 23.0 mph N/A   Unknown
6:25 PM 62.6 °F 51.8 °F 68% 29.83 in 6.2 mi WNW 12.7 mph - N/A   Partly Cloudy
6:55 PM 62.6 °F 51.8 °F 68% 29.83 in 6.2 mi WNW 12.7 mph - N/A   Unknown
7:25 PM 60.8 °F 51.8 °F 72% 29.83 in 6.2 mi WNW 10.4 mph - N/A   Partly Cloudy
7:55 PM 60.8 °F 50.0 °F 68% 29.86 in 6.2 mi NW 8.1 mph - N/A   Unknown
8:00 PM 61 °F 50 °F 59% 29.87 in 19 mi WNW 6.7 mph - -   Partly Cloudy
8:25 PM 60.8 °F 50.0 °F 68% 29.86 in 6.2 mi NW 8.1 mph - N/A Rain Light Rain
8:55 PM 60.8 °F 50.0 °F 68% 29.86 in 6.2 mi WNW 9.2 mph - N/A   Scattered Clouds
9:25 PM 60.8 °F 50.0 °F 68% 29.89 in 6.2 mi WNW 8.1 mph - N/A   Partly Cloudy
9:55 PM 59.0 °F 50.0 °F 72% 29.89 in 6.2 mi WNW 6.9 mph - N/A   Partly Cloudy
10:25 PM 60.8 °F 51.8 °F 72% 29.89 in 6.2 mi WNW 10.4 mph - N/A   Overcast
10:55 PM 60.8 °F 51.8 °F 72% 29.92 in 6.2 mi NW 10.4 mph - N/A   Partly Cloudy
11:00 PM 60 °F 50 °F 61% 29.92 in 16 mi NW 11.2 mph - - Rain Rain
11:25 PM 60.8 °F 50.0 °F 68% 29.92 in 6.2 mi NW 9.2 mph - N/A   Unknown
11:55 PM 60.8 °F 50.0 °F 68% 29.92 in 6.2 mi NW 8.1 mph - N/A   Partly Cloudy